La Grange, TX

11:14 PM CST on November 19, 2019 (GMT -0600)
La Grange

Weather History for K3T5 - August, 2019

Change the Weather History Date:

Saturday, August 31, 2019

  Actual Average (KAUS) Record (KAUS)
Temperature  
Mean Temperature 86 °F -  
Max Temperature 99 °F 92 °F 106 °F (2000)
Min Temperature 74 °F 69 °F 62 °F (2006)
Cooling Degree Days 22    
Growing Degree Days 36 (Base 50)    
Moisture  
Dew Point 72 °F    
Average Humidity 71    
Maximum Humidity 100    
Minimum Humidity 35    
Precipitation  
Precipitation 0.00 in - - ()
Sea Level Pressure  
Sea Level Pressure 29.98 in    
Wind  
Wind Speed 2 mph (East)    
Max Wind Speed 12 mph    
Max Gust Speed 17 mph    
Visibility 10 miles    
Events Thunderstorm    
Averages and records for this station are not official NWS values.
T = Trace of Precipitation, MM = Missing Value Source: NWS Daily Summary

Daily Weather History Graph

Daily Weather History Graph

Search for Another Location

Airport or City:

Astronomy

Aug. 31, 2019 Rise Set
Actual Time 7:04 AM CDT 7:51 PM CDT
Civil Twilight 6:39 AM CDT 8:15 PM CDT
Nautical Twilight 6:11 AM CDT 8:44 PM CDT
Astronomical Twilight 5:41 AM CDT 9:13 PM CDT
Moon 8:19 AM CDT (8/31) 9:10 PM CDT (8/31)
Length of Visible Light 13h 36m
Length of Day
12h 47m
New Moon, 3% of the Moon is Illuminated
Aug 31
New Moon
Sep 5
First Quarter
Sep 13
Full
Sep 21
Last Quarter
Sep 28
New

Hourly Weather History & Observations

Time (CDT) Temp. Heat Index Dew Point Humidity Pressure Visibility Wind Dir Wind Speed Gust Speed Precip Events Conditions
12:15 AM 81.0 °F 86.7 °F 75.0 °F 82% 30.00 in 10.0 mi SSE 3.5 mph - N/A   Clear
12:35 AM 80.2 °F 85.5 °F 75.2 °F 85% 30.00 in 10.0 mi SSE 3.5 mph - N/A   Clear
12:55 AM 80.4 °F 86.0 °F 75.4 °F 85% 30.00 in 10.0 mi Calm Calm - N/A   Clear
1:15 AM 79.5 °F - 75.4 °F 87% 30.00 in 10.0 mi Calm Calm - N/A   Clear
1:35 AM 79.0 °F - 76.1 °F 91% 30.00 in 10.0 mi Calm Calm - N/A   Clear
1:55 AM 78.6 °F - 75.6 °F 90% 30.00 in 10.0 mi Calm Calm - N/A   Clear
2:15 AM 78.1 °F - 76.1 °F 94% 30.00 in 10.0 mi Calm Calm - N/A   Clear
2:35 AM 77.4 °F - 76.5 °F 97% 30.00 in 10.0 mi Calm Calm - N/A   Clear
2:55 AM 76.6 °F - 76.6 °F 100% 30.00 in 10.0 mi Calm Calm - N/A   Clear
3:15 AM 76.6 °F - 76.5 °F 99% 30.00 in 10.0 mi Calm Calm - N/A   Clear
3:35 AM 76.6 °F - 76.5 °F 99% 30.00 in 10.0 mi Calm Calm - N/A   Clear
3:55 AM 75.7 °F - 75.7 °F 100% 30.00 in 10.0 mi Calm Calm - N/A   Clear
4:15 AM 76.5 °F - 76.5 °F 100% 29.99 in 10.0 mi Calm Calm - N/A   Clear
4:35 AM 76.1 °F - 76.1 °F 100% 29.99 in 10.0 mi Calm Calm - N/A   Clear
4:55 AM 76.1 °F - 76.1 °F 100% 30.00 in 10.0 mi Calm Calm - N/A   Clear
5:15 AM 75.7 °F - 75.7 °F 100% 30.00 in 10.0 mi Calm Calm - N/A   Clear
5:35 AM 75.4 °F - 75.4 °F 100% 30.00 in 10.0 mi Calm Calm - N/A   Clear
5:55 AM 75.2 °F - 75.2 °F 100% 30.00 in 10.0 mi Calm Calm - N/A   Clear
6:15 AM 74.8 °F - 74.8 °F 100% 30.00 in 10.0 mi Calm Calm - N/A   Clear
6:35 AM 74.7 °F - 74.7 °F 100% 30.01 in 10.0 mi Calm Calm - N/A   Clear
6:55 AM 75.6 °F - 75.6 °F 100% 30.01 in 10.0 mi Calm Calm - N/A   Clear
7:15 AM 74.8 °F - 74.8 °F 100% 30.01 in 10.0 mi Calm Calm - N/A   Clear
7:35 AM 75.2 °F - 75.2 °F 100% 30.01 in 10.0 mi Calm Calm - N/A   Clear
7:55 AM 76.1 °F - 76.1 °F 100% 30.01 in 10.0 mi Calm Calm - N/A   Clear
8:15 AM 77.4 °F - 77.4 °F 100% 30.02 in 10.0 mi Calm Calm - N/A   Clear
8:35 AM 79.2 °F - 78.3 °F 97% 30.02 in 10.0 mi Calm Calm - N/A   Clear
8:55 AM 81.0 °F 88.4 °F 77.9 °F 90% 30.02 in 10.0 mi Calm Calm - N/A   Clear
9:35 AM 84.4 °F 94.6 °F 77.4 °F 79% 30.02 in 10.0 mi Calm Calm - N/A   Clear
9:55 AM 85.1 °F 95.8 °F 77.0 °F 77% 30.02 in 10.0 mi Calm Calm - N/A   Mostly Cloudy
10:15 AM 86.2 °F 95.5 °F 75.4 °F 70% 30.02 in 10.0 mi SW 3.5 mph - N/A   Overcast
10:35 AM 86.0 °F 93.0 °F 72.9 °F 65% 30.02 in 10.0 mi Calm Calm - N/A   Scattered Clouds
10:55 AM 86.4 °F 93.8 °F 73.4 °F 65% 30.02 in 10.0 mi SW 3.5 mph - N/A   Mostly Cloudy
11:15 AM 86.9 °F 94.5 °F 73.4 °F 64% 30.02 in 10.0 mi Calm Calm - N/A   Mostly Cloudy
11:35 AM 90.7 °F 97.9 °F 71.8 °F 54% 30.02 in 10.0 mi Calm Calm - N/A   Mostly Cloudy
11:55 AM 91.4 °F 98.9 °F 72.1 °F 53% 30.02 in 10.0 mi East 3.5 mph - N/A   Scattered Clouds
12:15 PM 93.0 °F 100.7 °F 71.8 °F 50% 30.01 in 10.0 mi NNE 5.8 mph - N/A   Scattered Clouds
12:35 PM 92.3 °F 99.7 °F 71.6 °F 51% 30.02 in 10.0 mi Calm Calm - N/A   Mostly Cloudy
12:55 PM 92.5 °F 99.0 °F 70.7 °F 49% 30.01 in 10.0 mi NW 6.9 mph - N/A   Mostly Cloudy
1:15 PM 93.0 °F 99.0 °F 70.2 °F 47% 30.00 in 10.0 mi NNE 3.5 mph - N/A   Mostly Cloudy
1:35 PM 93.0 °F 99.5 °F 70.5 °F 48% 30.00 in 10.0 mi East 5.8 mph - N/A   Scattered Clouds
1:55 PM 94.5 °F 100.2 °F 69.3 °F 44% 29.99 in 10.0 mi ENE 8.1 mph - N/A   Clear
2:15 PM 95.7 °F 100.3 °F 68.2 °F 40% 29.98 in 10.0 mi ESE 5.8 mph - N/A   Clear
2:35 PM 95.5 °F 98.9 °F 66.0 °F 38% 29.97 in 10.0 mi East 3.5 mph - N/A   Clear
2:55 PM 97.5 °F 101.4 °F 66.4 °F 36% 29.96 in 10.0 mi ENE 5.8 mph - N/A   Clear
3:15 PM 96.8 °F 99.5 °F 65.1 °F 35% 29.95 in 10.0 mi Calm Calm - N/A   Clear
3:35 PM 96.3 °F 99.1 °F 65.3 °F 36% 29.94 in 10.0 mi NW 3.5 mph - N/A   Clear
3:55 PM 97.2 °F 100.7 °F 65.8 °F 36% 29.93 in 10.0 mi ENE 4.6 mph - N/A   Clear
4:15 PM 98.4 °F 103.1 °F 66.9 °F 36% 29.92 in 10.0 mi East 4.6 mph - N/A   Clear
4:35 PM 97.0 °F 100.4 °F 65.7 °F 36% 29.91 in 10.0 mi Calm Calm - N/A   Clear
4:55 PM 98.1 °F 101.8 °F 65.8 °F 35% 29.91 in 10.0 mi North 3.5 mph - N/A   Clear
5:15 PM 99.0 °F 104.8 °F 68.7 °F 37% 29.91 in 10.0 mi ESE 9.2 mph - N/A   Mostly Cloudy
5:35 PM 93.7 °F 100.5 °F 70.9 °F 47% 29.91 in 10.0 mi ESE 10.4 mph 17.3 mph N/A   Mostly Cloudy
5:55 PM 93.2 °F 99.4 °F 70.3 °F 47% 29.92 in 10.0 mi ESE 6.9 mph - N/A   Scattered Clouds
6:15 PM 93.2 °F 99.9 °F 70.9 °F 48% 29.91 in 10.0 mi ESE 8.1 mph - N/A   Mostly Cloudy
6:35 PM 91.6 °F 98.8 °F 71.4 °F 52% 29.93 in 10.0 mi SSE 6.9 mph - N/A Thunderstorm Overcast
6:55 PM 90.9 °F 97.8 °F 71.4 °F 53% 29.94 in 10.0 mi East 5.8 mph - N/A   Mostly Cloudy
7:15 PM 89.6 °F 96.6 °F 72.1 °F 56% 29.95 in 10.0 mi East 11.5 mph 17.3 mph N/A   Scattered Clouds
7:35 PM 86.0 °F 91.5 °F 71.2 °F 61% 29.96 in 10.0 mi East 8.1 mph - N/A Thunderstorm Clear
7:55 PM 84.7 °F 90.4 °F 71.6 °F 65% 29.96 in 10.0 mi ESE 4.6 mph - N/A   Clear
8:15 PM 82.9 °F 87.7 °F 71.6 °F 68% 29.96 in 10.0 mi East 3.5 mph - N/A   Clear
8:35 PM 81.5 °F 85.3 °F 70.3 °F 69% 29.96 in 10.0 mi SE 3.5 mph - N/A   Clear
8:55 PM 80.2 °F 83.1 °F 68.9 °F 68% 29.96 in 10.0 mi Calm Calm - N/A   Clear
9:15 PM 79.5 °F - 68.9 °F 70% 29.96 in 10.0 mi Calm Calm - N/A   Clear
9:35 PM 79.0 °F - 69.3 °F 72% 29.97 in 10.0 mi Calm Calm - N/A   Clear
9:55 PM 78.8 °F - 68.5 °F 71% 29.98 in 10.0 mi Calm Calm - N/A   Clear
10:15 PM 78.1 °F - 68.9 °F 73% 29.99 in 10.0 mi Calm Calm - N/A   Clear
10:55 PM 78.3 °F - 69.6 °F 75% 29.99 in 10.0 mi Calm Calm - N/A   Clear
11:15 PM 77.2 °F - 69.8 °F 78% 29.99 in 10.0 mi Calm Calm - N/A   Clear
11:35 PM 77.7 °F - 69.4 °F 76% 29.99 in 10.0 mi Calm Calm - N/A   Clear
11:55 PM 77.2 °F - 70.0 °F 78% 29.99 in 10.0 mi Calm Calm - N/A   Clear